User: anonymous   Login
Location: Pacheco
(37.9835°N, 122.0752°W)
Time: 16:04:14
(UTC+00:00)
Language:

Cosmos 494 Rocket - Orbit

View from above orbital plane
View from above orbital plane
View from above satellite
View from above satellite

Ground track
Ground track

The orbit data is extracted from the following two-line orbital elements,

1 06061U 72043B   24165.68980553  .00000455  00000-0  14831-3 0  9995
2 06061  74.0544 142.5906 0019905 347.9857  12.0821 14.41337420725763
Epoch (UTC): 13 June 2024 16:33:19
Eccentricity: 0.0019905
inclination: 74.0544°
perigee height: 740 km
apogee height: 768 km
right ascension of ascending node: 142.5906°
argument of perigee: 347.9857°
revolutions per day: 14.41337420
mean anomaly at epoch: 12.0821°
orbit number at epoch: 72576

The dashed part of the orbit path shows where the satellite is in the earth's shadow,  

DLR